KC1NKL-13 Weather Reports


time (UTC)temp
C
wind
direction
speed
KPH
gust
KPH
rain 1hr
cm
rain 24hr
cm
rain mn
cm
humidity
%
barometer
mb
20260508111516 7 248 4.8 9.7 0.00 0.03 0.00 62 1008.0
20260508110516 6 270 3.2 6.4 0.00 0.03 0.00 64 1007.9
20260508105516 6 270 3.2 4.8 0.00 0.03 0.00 66 1007.9
20260508104516 5 270 3.2 4.8 0.00 0.03 0.00 66 1007.8
20260508103516 5 270 3.2 4.8 0.00 0.03 0.00 67 1007.6
20260508102516 5 270 3.2 4.8 0.00 0.03 0.00 67 1007.5
20260508101516 5 293 1.6 3.2 0.00 0.03 0.00 66 1007.3
20260508100516 5 270 3.2 6.4 0.00 0.03 0.00 67 1007.1
20260508095516 5 270 3.2 4.8 0.00 0.03 0.00 67 1007.1
20260508094536 5 270 4.8 4.8 0.00 0.03 0.00 66 1006.9
20260508093558 5 270 3.2 4.8 0.00 0.03 0.00 66 1006.8
20260508092516 5 270 3.2 3.2 0.00 0.03 0.00 66 1006.4
20260508091516 5 270 1.6 3.2 0.00 0.03 0.00 66 1006.4
20260508090516 5 270 3.2 4.8 0.00 0.03 0.00 64 1006.3
20260508085516 5 270 3.2 4.8 0.00 0.03 0.00 63 1006.3
20260508084516 6 270 3.2 4.8 0.00 0.03 0.00 61 1006.3
20260508083515 6 293 1.6 3.2 0.00 0.03 0.00 60 1006.2
20260508082521 6 0.0 3.2 0.00 0.03 0.00 62 1006.1
20260508081535 6 270 1.6 3.2 0.00 0.03 0.00 62 1006.1
20260508080556 6 270 3.2 6.4 0.00 0.03 0.00 60 1005.9
20260508075535 6 270 1.6 6.4 0.00 0.03 0.00 59 1005.9
20260508074515 6 293 1.6 9.7 0.00 0.03 0.00 58 1005.8
20260508073515 6 315 1.6 4.8 0.00 0.03 0.00 59 1005.8
20260508072515 6 270 3.2 8.0 0.00 0.03 0.00 59 1005.8
20260508071518 6 248 4.8 9.7 0.00 0.03 0.00 58 1005.8
20260508070517 6 248 4.8 9.7 0.00 0.03 0.00 58 1005.7
20260508065538 6 248 3.2 9.7 0.00 0.03 0.00 58 1005.8
20260508064539 6 270 3.2 8.0 0.00 0.03 0.00 57 1005.9
20260508063517 6 270 3.2 11.3 0.00 0.03 0.00 58 1005.9
20260508062517 6 270 4.8 8.0 0.00 0.03 0.00 57 1005.8
20260508061517 7 270 3.2 11.3 0.00 0.03 0.00 57 1005.9
20260508060517 7 270 3.2 9.7 0.00 0.03 0.00 57 1006.1
20260508055517 6 270 1.6 4.8 0.00 0.05 0.00 57 1006.2
20260508054517 6 248 3.2 8.0 0.00 0.05 0.00 58 1006.2
20260508053517 6 270 3.2 8.0 0.00 0.08 0.00 59 1006.3
20260508052517 6 270 3.2 6.4 0.00 0.08 0.00 59 1006.5
20260508051537 6 270 3.2 6.4 0.00 0.10 0.00 59 1006.6
20260508050517 6 293 3.2 6.4 0.00 0.13 0.00 60 1006.6
20260508045517 6 270 4.8 6.4 0.00 0.15 0.00 63 1006.7
20260508044517 7 270 4.8 8.0 0.00 0.25 0.00 56 1006.9
20260508043517 7 293 1.6 4.8 0.00 0.36 0.00 55 1006.9
20260508042517 6 270 1.6 4.8 0.00 0.36 0.00 57 1006.9
20260508041517 6 293 1.6 3.2 0.00 0.38 0.00 59 1006.8
20260508040517 6 270 3.2 4.8 0.00 0.41 0.00 62 1006.7
20260508035536 7 270 3.2 6.4 0.00 0.43 0.41 54 1006.9
20260508034517 7 248 1.6 4.8 0.00 0.43 0.41 52 1007.0
20260508033516 7 270 1.6 4.8 0.00 0.43 0.41 53 1007.1
20260508032557 7 270 1.6 4.8 0.00 0.43 0.41 54 1007.0
20260508031517 8 293 1.6 3.2 0.00 0.46 0.41 52 1007.0
20260508030516 8 293 1.6 4.8 0.00 0.46 0.41 51 1007.1
20260508025516 8 338 3.2 8.0 0.00 0.48 0.41 51 1007.0
20260508024516 8 338 3.2 6.4 0.00 0.48 0.41 53 1006.7
20260508023516 8 315 3.2 6.4 0.00 0.48 0.41 54 1006.8
20260508022517 8 315 1.6 4.8 0.00 0.48 0.41 52 1006.7
20260508021517 8 338 3.2 6.4 0.00 0.48 0.41 51 1006.6
20260508020516 9 338 1.6 4.8 0.00 0.51 0.41 51 1006.7
20260508015516 9 270 1.6 9.7 0.00 0.51 0.41 51 1006.5
20260508014516 9 338 1.6 4.8 0.00 0.51 0.41 51 1006.5
20260508013537 10 338 3.2 6.4 0.00 0.53 0.41 50 1006.5
20260508012536 10 338 3.2 4.8 0.00 0.53 0.41 50 1006.4
20260508011516 10 338 3.2 9.7 0.00 0.53 0.41 49 1006.3
20260508010516 10 338 6.4 11.3 0.00 0.56 0.41 48 1006.2
20260508005516 11 338 4.8 14.5 0.00 0.58 0.41 48 1005.9
20260508004538 11 338 3.2 8.0 0.00 0.61 0.41 47 1005.9
20260508003517 11 338 4.8 17.7 0.00 0.61 0.41 45 1005.6
20260508002521 11 315 3.2 6.4 0.00 0.61 0.41 45 1005.5
20260508001537 11 315 1.6 6.4 0.00 0.61 0.41 45 1005.3
20260508000519 12 293 3.2 9.7 0.00 0.61 0.41 44 1005.1
20260507235516 12 315 3.2 6.4 0.00 0.61 0.41 43 1005.0
20260507234516 12 270 3.2 9.7 0.00 0.61 0.41 42 1005.0
20260507233516 13 0 4.8 14.5 0.00 0.61 0.41 40 1004.8
20260507232516 13 270 4.8 9.7 0.00 0.61 0.41 39 1004.6
20260507231516 13 293 4.8 19.3 0.00 0.61 0.41 39 1004.3
20260507230516 14 315 3.2 8.0 0.00 0.61 0.41 39 1004.2
20260507225516 14 248 6.4 19.3 0.00 0.64 0.41 38 1004.0
20260507224516 15 315 6.4 14.5 0.00 0.64 0.41 38 1003.9
20260507223516 15 338 4.8 11.3 0.00 0.66 0.41 36 1003.8
20260507222536 15 338 3.2 16.1 0.00 0.66 0.41 36 1003.6
20260507221516 15 270 6.4 17.7 0.00 0.69 0.41 35 1003.6
20260507220516 16 248 8.0 27.4 0.00 0.74 0.41 33 1003.6
20260507215517 16 248 6.4 14.5 0.00 0.81 0.41 34 1003.4
20260507214516 16 270 6.4 20.9 0.00 0.89 0.41 34 1003.4
20260507213516 16 248 6.4 16.1 0.00 0.99 0.41 33 1003.5
20260507212516 16 248 8.0 17.7 0.00 1.07 0.41 32 1003.3
20260507211515 16 248 4.8 11.3 0.00 1.12 0.41 34 1003.3
20260507210515 17 225 4.8 9.7 0.00 1.17 0.41 38 1003.2
20260507205536 17 248 8.0 17.7 0.00 1.19 0.41 37 1003.1
20260507204537 16 248 8.0 14.5 0.00 1.22 0.41 41 1003.0
20260507203516 16 248 8.0 16.1 0.00 1.27 0.41 44 1002.9
20260507202516 16 248 6.4 16.1 0.00 1.30 0.41 48 1003.0
20260507201518 16 248 8.0 19.3 0.00 1.42 0.41 48 1003.0
20260507200517 16 248 6.4 12.9 0.00 1.45 0.41 51 1002.9
20260507195517 16 225 6.4 9.7 0.00 1.47 0.41 52 1003.0
20260507194517 16 248 6.4 14.5 0.00 1.50 0.41 54 1003.1
20260507193517 16 225 4.8 9.7 0.00 1.50 0.41 50 1003.2
20260507192517 15 225 6.4 11.3 0.00 1.52 0.41 58 1003.2
20260507191517 15 225 4.8 6.4 0.00 1.52 0.41 57 1003.2
20260507190517 15 225 4.8 9.7 0.00 1.52 0.41 53 1003.2
20260507185517 15 225 3.2 6.4 0.00 1.52 0.41 56 1003.3
20260507184517 16 225 4.8 11.3 0.00 1.52 0.41 54 1003.3
20260507183517 16 180 8.0 11.3 0.00 1.52 0.41 56 1003.4
20260507182537 15 203 4.8 9.7 0.00 1.52 0.41 59 1003.5
20260507181637 15 225 6.4 16.1 0.00 1.52 0.41 59 1003.7
20260507180522 15 270 3.2 6.4 0.00 1.52 0.41 53 1003.5
20260507175517 15 225 4.8 8.0 0.00 1.52 0.41 53 1003.7
20260507174517 15 225 3.2 8.0 0.00 1.52 0.41 54 1003.7
20260507173517 15 248 3.2 8.0 0.00 1.52 0.41 53 1003.7
20260507172517 15 248 3.2 8.0 0.00 1.52 0.41 53 1003.8
20260507171517 16 225 6.4 11.3 0.00 1.52 0.41 48 1003.9
20260507170520 16 225 4.8 9.7 0.00 1.52 0.41 51 1003.9
20260507165518 17 225 4.8 9.7 0.00 1.52 0.41 50 1003.9
20260507164519 17 248 4.8 9.7 0.00 1.52 0.41 52 1004.1
20260507163517 15 248 4.8 9.7 0.00 1.52 0.41 55 1004.2
20260507162517 15 248 6.4 12.9 0.00 1.52 0.41 53 1004.4
20260507161517 15 248 6.4 9.7 0.00 1.52 0.41 55 1004.5
20260507160517 15 225 4.8 9.7 0.00 1.52 0.41 57 1004.6
20260507155517 15 248 4.8 9.7 0.00 1.52 0.41 58 1004.8
20260507154517 16 338 3.2 9.7 0.00 1.52 0.41 55 1004.9
20260507153517 15 338 4.8 9.7 0.00 1.52 0.41 53 1005.0
20260507152517 15 248 4.8 8.0 0.00 1.52 0.41 59 1005.0
20260507151517 15 270 3.2 8.0 0.00 1.52 0.41 63 1005.1
20260507150517 14 225 4.8 6.4 0.00 1.52 0.41 65 1005.1
20260507145536 14 338 1.6 4.8 0.00 1.52 0.41 66 1005.2
20260507144517 13 315 3.2 6.4 0.00 1.52 0.41 66 1005.4
20260507143517 13 338 4.8 8.0 0.00 1.52 0.41 68 1005.4
20260507142539 13 315 3.2 9.7 0.03 1.52 0.41 67 1005.4
20260507141516 13 270 1.6 8.0 0.03 1.52 0.41 68 1005.6
20260507140516 12 315 3.2 6.4 0.03 1.52 0.41 72 1005.8
20260507135516 12 270 3.2 8.0 0.03 1.52 0.41 71 1005.8
20260507134517 12 270 3.2 8.0 0.03 1.52 0.41 73 1005.8
20260507133516 12 270 3.2 6.4 0.03 1.52 0.41 76 1005.9
20260507132516 11 248 3.2 6.4 0.00 1.50 0.38 74 1005.8
20260507131516 11 248 3.2 6.4 0.00 1.50 0.38 76 1006.0
20260507130617 11 338 3.2 8.0 0.00 1.50 0.38 78 1006.2
20260507125516 10 293 3.2 11.3 0.00 1.50 0.38 78 1006.3
20260507124543 10 248 3.2 6.4 0.00 1.50 0.38 79 1006.0
20260507123516 10 338 3.2 9.7 0.00 1.50 0.38 79 1006.0
20260507122536 10 270 3.2 8.0 0.00 1.50 0.38 83 1006.1
20260507121516 9 248 4.8 11.3 0.00 1.50 0.38 83 1006.1
20260507120536 9 270 3.2 8.0 0.00 1.50 0.38 84 1006.0
20260507115516 8 293 1.6 4.8 0.00 1.50 0.38 88 1006.0
20260507114516 8 293 1.6 8.0 0.00 1.50 0.38 90 1006.2
20260507113516 8 293 1.6 3.2 0.00 1.50 0.38 92 1006.2
20260507112516 8 315 1.6 1.6 0.00 1.50 0.38 91 1006.6